STARLINK-35505

Last updated on Sun Dec 07 2025 00:02:05 GMT+0000 (Coordinated Universal Time)

1 66329U 25253L 25339.85137910 .00195359 00000+0 32246-2 0 9999 2 66329 43.0002 25.0138 0001657 320.9763 39.0978 15.50829016 5867
UTC large
Height (km)
Speed (km/s)
/
Latitude / Longitude
Inclination (degrees)
Orbital Period (minutes)
Azimuth
Elevation
Range (km)
Doppler Factor

Next 0 passes for location: London (51.5072 / 0.1276)

Sorry there are no passes over London.